This is the latest recevied weather packets stored in our database for station/object SQ8SW-4. If no packets are shown the sender has not sent any weather packets the latest 1 day(s).
| Time | Temp. | Humidity | Pressure | Rain* | Wind** | Luminosity | Snow |
|---|---|---|---|---|---|---|---|
| 1778069538 | 26.11° C | 36% | 980 hPa | - | - | - | - |
| 1778068636 | 25.56° C | 35% | 980 hPa | - | - | - | - |
| 1778067734 | 25.56° C | 35% | 980 hPa | - | - | - | - |
| 1778066831 | 25.56° C | 35% | 980 hPa | - | - | - | - |
| 1778065929 | 25° C | 35% | 980 hPa | - | - | - | - |
| 1778063222 | 24.44° C | 39% | 980 hPa | - | - | - | - |
| 1778062320 | 24.44° C | 39% | 980 hPa | - | - | - | - |
| 1778061418 | 23.89° C | 40% | 980 hPa | - | - | - | - |
| 1778057809 | 22.78° C | 42% | 980 hPa | - | - | - | - |
| 1778055102 | 21.67° C | 44% | 980 hPa | - | - | - | - |
| 1778054200 | 21.67° C | 46% | 980 hPa | - | - | - | - |
| 1778053298 | 21.11° C | 47% | 980 hPa | - | - | - | - |
| 1778051493 | 20° C | 50% | 980 hPa | - | - | - | - |
| 1778050591 | 20° C | 50% | 980 hPa | - | - | - | - |
| 1778049689 | 19.44° C | 50% | 980 hPa | - | - | - | - |
| 1778046982 | 18.33° C | 49% | 980 hPa | - | - | - | - |
| 1778046079 | 17.78° C | 49% | 980 hPa | - | - | - | - |
| 1778045177 | 17.78° C | 51% | 980 hPa | - | - | - | - |
| 1778044275 | 17.78° C | 51% | 980 hPa | - | - | - | - |
| 1778042470 | 17.22° C | 50% | 980 hPa | - | - | - | - |
| 1778040665 | 17.78° C | 50% | 980 hPa | - | - | - | - |
| 1778039763 | 17.78° C | 48% | 980 hPa | - | - | - | - |
| 1778038861 | 17.78° C | 47% | 980 hPa | - | - | - | - |
| 1778037959 | 17.78° C | 47% | 980 hPa | - | - | - | - |
| 1778036154 | 17.22° C | 47% | 980 hPa | - | - | - | - |
* Rain since midnight (hover to see other rain measurements)
** Current wind speed in m/s (hover to see current wind gust speed)